Location: Unspecified
(50.7693°N, 0.0000°E)
Time: 17:54:37
(UTC+00:00)

Transit 4A - Pass Details

Date: 29 June 2019
Orbit: 862 x 982 km, 66.8° (Epoch: 15 July)

Event Time Altitude Azimuth Distance (km) Brightness Sun altitude
Rises 10:08:51 0° 284° (WNW) 3,680 10.7 54.6°
Reaches altitude 10° 10:12:10 10° 301° (WNW) 2,741 10.1 55.0°
Maximum altitude 10:16:50 20° 348° (NNW) 2,086 9.7 55.6°
Drops below altitude 10° 10:21:30 10° 35° (NE) 2,741 10.4 56.1°
Sets 10:24:50 0° 51° (NE) 3,679 11.1 56.5°
